Kahului, HI

10:24 PM HST on October 17, 2017 (GMT -1000)
Kahului

Weather History for PHOG - July, 2012

Change the Weather History Date:

Monday, July 30, 2012

  Actual Average Record
Temperature  
Mean Temperature 77 °F 80 °F  
Max Temperature 86 °F 88 °F 96 °F (1951)
Min Temperature 67 °F 72 °F 58 °F (1965)
Degree Days  
Heating Degree Days 0 0  
Month to date heating degree days 0 0  
Since 1 June heating degree days 0 0  
Since 1 July heating degree days 0 0  
Cooling Degree Days 12 15  
Month to date cooling degree days 394 424  
Year to date cooling degree days 2091 2071  
Since 1 June cooling degree days 766 812  
Growing Degree Days 25 (Base 50)    
Moisture  
Dew Point 60 °F    
Average Humidity 66    
Maximum Humidity 78    
Minimum Humidity 54    
Precipitation  
Precipitation T in 0.02 in 0.24 in (1968)
Month to date precipitation 0.13 0.48  
Year to date precipitation 4.15 10.18  
Snow  
Snow 0.00 in - - ()
Month to date snowfall 0.0  
Since 1 June snowfall 0.0  
Since 1 July snowfall 0.0  
Snow Depth 0.00 in    
Sea Level Pressure  
Sea Level Pressure 30.04 in    
Wind  
Wind Speed 17 mph (ENE)    
Max Wind Speed 31 mph    
Max Gust Speed 41 mph    
Visibility 10 miles    
Events      
T = Trace of Precipitation, MM = Missing Value Source: NWS Daily Summary

Daily Weather History Graph

Daily Weather History Graph

Search for Another Location

Airport or City:

Trip Planner

Search our weather history database for the weather conditions in past years. The results will help you decide how hot, cold, wet, or windy it might be!

Date:

Astronomy

Jul. 30, 2012 Rise Set
Actual Time 5:59 AM HST 7:04 PM HST
Civil Twilight 5:35 AM HST 7:28 PM HST
Nautical Twilight 5:07 AM HST 7:56 PM HST
Astronomical Twilight 4:38 AM HST 8:25 PM HST
Moon 5:11 PM HST (7/30) 3:32 AM HST (7/30)
Length of Visible Light 13h 52m
Length of Day
13h 05m
Waxing Gibbous, 94% of the Moon is Illuminated
Jul 30
Waxing Gibbous
Aug 1
Full
Aug 9
Last Quarter
Aug 17
New
Aug 24
First Quarter

Hourly Weather History & Observations

Time (HST) Temp. Heat Index Dew Point Humidity Pressure Visibility Wind Dir Wind Speed Gust Speed Precip Events Conditions
12:54 AM 75.0 °F - 66.0 °F 73% 30.04 in 10.0 mi ENE 12.7 mph 19.6 mph N/A   Clear
1:54 AM 73.0 °F - 63.0 °F 71% 30.03 in 10.0 mi ENE 11.5 mph - N/A   Clear
2:46 AM 69.8 °F - 62.6 °F 78% 30.00 in 10.0 mi ESE 6.9 mph 19.6 mph N/A   Clear
2:54 AM 70.0 °F - 62.1 °F 76% 30.01 in 10.0 mi Calm Calm - N/A   Partly Cloudy
3:54 AM 69.1 °F - 61.0 °F 75% 30.02 in 10.0 mi Calm Calm - N/A   Clear
4:54 AM 69.1 °F - 61.0 °F 75% 30.02 in 10.0 mi NNE 9.2 mph - N/A   Partly Cloudy
5:54 AM 73.9 °F - 57.0 °F 55% 30.04 in 10.0 mi ENE 16.1 mph 23.0 mph N/A   Scattered Clouds
6:54 AM 73.9 °F - 57.9 °F 57% 30.05 in 10.0 mi ENE 16.1 mph 21.9 mph N/A   Scattered Clouds
7:09 AM 75.2 °F - 59.0 °F 57% 30.04 in 10.0 mi NE 20.7 mph - N/A   Scattered Clouds
7:54 AM 78.1 °F - 61.0 °F 56% 30.06 in 10.0 mi ENE 13.8 mph 19.6 mph N/A   Scattered Clouds
8:54 AM 80.1 °F 81.7 °F 64.0 °F 58% 30.07 in 10.0 mi NE 19.6 mph 26.5 mph N/A   Scattered Clouds
9:54 AM 81.0 °F 82.2 °F 63.0 °F 54% 30.07 in 10.0 mi NE 21.9 mph 26.5 mph 0.00 in   Scattered Clouds
10:54 AM 82.0 °F 84.1 °F 66.0 °F 58% 30.06 in 10.0 mi NE 26.5 mph 34.5 mph N/A   Scattered Clouds
11:54 AM 82.9 °F 85.4 °F 66.9 °F 58% 30.04 in 10.0 mi ENE 25.3 mph 38.0 mph 0.00 in   Scattered Clouds
12:54 PM 81.0 °F 83.0 °F 66.0 °F 60% 30.03 in 10.0 mi ENE 23.0 mph 36.8 mph N/A   Scattered Clouds
1:54 PM 84.0 °F 86.5 °F 66.9 °F 56% 30.02 in 10.0 mi ENE 24.2 mph 34.5 mph N/A   Scattered Clouds
2:54 PM 82.0 °F 84.1 °F 66.0 °F 58% 30.00 in 10.0 mi ENE 27.6 mph 36.8 mph N/A   Mostly Cloudy
3:54 PM 79.0 °F - 64.0 °F 60% 30.01 in 10.0 mi ENE 24.2 mph 33.4 mph N/A   Scattered Clouds
4:54 PM 79.0 °F - 61.0 °F 54% 30.01 in 10.0 mi ENE 24.2 mph 32.2 mph N/A   Mostly Cloudy
5:54 PM 78.1 °F - 62.1 °F 58% 30.01 in 10.0 mi NE 20.7 mph 33.4 mph N/A   Mostly Cloudy
6:54 PM 75.9 °F - 57.9 °F 54% 30.03 in 10.0 mi ENE 20.7 mph 28.8 mph N/A   Scattered Clouds
7:54 PM 75.0 °F - 55.0 °F 50% 30.06 in 10.0 mi NE 23.0 mph 27.6 mph N/A   Scattered Clouds
8:54 PM 75.0 °F - 50.0 °F 41% 30.08 in 10.0 mi ENE 16.1 mph 24.2 mph N/A   Mostly Cloudy
9:54 PM 75.9 °F - 50.0 °F 40% 30.09 in 10.0 mi NE 17.3 mph 24.2 mph N/A   Partly Cloudy
10:54 PM 75.9 °F - 50.0 °F 40% 30.09 in 10.0 mi ENE 13.8 mph 24.2 mph N/A   Scattered Clouds
11:54 PM 75.0 °F - 48.9 °F 40% 30.09 in 10.0 mi ENE 15.0 mph 21.9 mph N/A   Partly Cloudy